User: anonymous   Login
Location: Unspecified
(0.0000°N, 0.0000°E)
Time: 23:48:35
(UTC+00:00)
Language:

COSMOS 2451 - Orbit

View from above orbital plane
View from above orbital plane
View from above satellite
View from above satellite

Ground track
Ground track

The orbit data is extracted from the following two-line orbital elements,

1 35498U 09036A   24105.54662919  .00000026  00000-0  12097-3 0  9991
2 35498  82.4898 224.7741 0007967 132.1738 228.0019 12.40845574669273
Epoch (UTC): 14 April 2024 13:07:08
Eccentricity: 0.0007967
inclination: 82.4898°
perigee height: 1497 km
apogee height: 1509 km
right ascension of ascending node: 224.7741°
argument of perigee: 132.1738°
revolutions per day: 12.40845574
mean anomaly at epoch: 228.0019°
orbit number at epoch: 66927

The dashed part of the orbit path shows where the satellite is in the earth's shadow,  

DLR